"TOA5","AWS1","CR1000","7964","CR1000.Std.14","CPU:AWS1_114.CR1","64363","TBL110"
"TIMESTAMP","RECORD","Wind_spd_WVc(1)","Wind_spd_WVc(2)","Air_Temp_Avg","Humidity_Avg","SW_upper_Wm2_Avg","Rain_Tot","Press_Avg","Issui_Tot","Depth_cm","SR50A_Raw","Quality","Ground_Temp_Avg(1)","Ground_Temp_Avg(2)","SW_lower_Wm2_Avg","Albedo_Avg","SWC_per(1)","SWC_per(2)","Period(1)","Period(2)"
"TS","RN","","","","","","","","","","","","","","","","","","",""
"","","WVc","WVc","Avg","Avg","Avg","Tot","Avg","Tot","Smp","Smp","Smp","Avg","Avg","Avg","Avg","Smp","Smp","Smp","Smp"
"2016-06-18 00:00:00",240397,0.354,190.7,11.74,97.5,0,0,865.6816,0,-32.17,3.428,207,17.94,17.19,0.3259005,0,50.72,58.67,33.47,35.37
"2016-06-18 00:10:00",240398,0.191,179.6,11.66,96.6,0,0,865.6964,0,8.61,3.029,350,17.91,17.19,0.1856875,0,50.72,58.67,33.47,35.37
"2016-06-18 00:20:00",240399,0.489,176.3,11.84,93.9,0,0,865.8375,0,-30.94,3.416,207,17.84,17.19,0.4736926,0,50.72,58.67,33.47,35.37
"2016-06-18 00:30:00",240400,0.483,170.5,11.57,97.8,0,0,865.7658,0,9.11,3.025,300,17.79,17.19,0.2463202,0,50.72,58.67,33.47,35.37
"2016-06-18 00:40:00",240401,0.57,174.8,11.61,96,0,0,865.8859,0,-29.33,3.402,236,17.79,17.19,0.322111,0,50.66,58.67,33.46,35.37
"2016-06-18 00:50:00",240402,0.407,200.5,11.58,96.1,0,0,865.8901,0,-33.26,3.44,315,17.69,17.19,0.3334796,0,50.66,58.67,33.46,35.37
"2016-06-18 01:00:00",240403,0.575,172.6,11.35,98.9,0,0,865.8901,0,-30.75,3.418,198,17.74,17.19,0.03031633,0,50.66,58.61,33.46,35.36
"2016-06-18 01:10:00",240404,0.575,183.1,11.32,99.1,0,0,865.8901,0,-45.3,3.559,360,17.61,17.2,0.2576888,0,50.66,58.61,33.46,35.36
"2016-06-18 01:20:00",240405,0.555,165.2,11.46,95.6,0,0,865.8985,0,-3.507,3.151,190,17.66,17.21,0.3107423,0,50.72,58.61,33.47,35.36
"2016-06-18 01:30:00",240406,0.402,171.5,11.16,99.1,0,0,865.9091,0,-2.511,3.141,208,17.62,17.23,0.1136862,0,50.72,58.61,33.47,35.36
"2016-06-18 01:40:00",240407,0.445,198.5,11.36,97.4,0,0,865.8901,0,-3.679,3.151,204,17.56,17.23,0.3145319,0,50.66,58.61,33.46,35.36
"2016-06-18 01:50:00",240408,0.621,194.5,11.5,96.8,0,0,865.8964,0,-24.86,3.358,194,17.57,17.23,0.3637959,0,50.66,58.61,33.46,35.36
"2016-06-18 02:00:00",240409,0.702,174.6,11.54,94,0,0,865.9217,0,-2.809,3.142,205,17.46,17.23,0.2993737,0,50.72,58.56,33.47,35.35
"2016-06-18 02:10:00",240410,0.624,180.4,11.81,90.8,0,0,865.8901,0,-28.39,3.392,217,17.48,17.23,0.4774822,0,50.66,58.56,33.46,35.35
"2016-06-18 02:20:00",240411,0.401,189.7,11.71,90.3,0,0,865.8901,0,-25.52,3.366,191,17.43,17.23,0.2122143,0,50.66,58.56,33.46,35.35
"2016-06-18 02:30:00",240412,0.39,197.4,11.78,88.9,0,0,865.8922,0,318,0,0,17.37,17.23,0.4357972,0,50.72,58.5,33.47,35.33
"2016-06-18 02:40:00",240413,0.507,177.4,11.71,88.8,0,0,865.8901,0,318,0,0,17.37,17.22,0.2197934,0,50.66,58.5,33.46,35.33
"2016-06-18 02:50:00",240414,0.48,174.5,11.57,88.9,0,0,865.9512,0,9.9,3.018,316,17.27,17.21,0.0833699,0,50.66,58.5,33.46,35.33
"2016-06-18 03:00:00",240415,0.315,203.3,11.71,86.5,0,0,866.1723,0,10.97,3.008,370,17.32,17.15,0.2349515,0,50.66,58.5,33.46,35.33
"2016-06-18 03:10:00",240416,0.483,147.5,11.12,93.1,0,0,866.2376,0,-46.57,3.576,336,17.22,17.12,0,0,50.66,58.56,33.46,35.35
"2016-06-18 03:20:00",240417,0.339,160.8,10.7,97.6,0,0,866.3703,0,13.21,2.991,371,17.19,17.14,0,0,50.61,58.5,33.45,35.33
"2016-06-18 03:30:00",240418,0.066,142.8,10.88,93.7,0,0,866.3956,0,318,0,0,17.2,17.14,0.2538992,0,50.61,58.5,33.45,35.33
"2016-06-18 03:40:00",240419,0.112,92.1,11.12,90,0,0,866.3977,0,-47.12,3.579,320,17.12,17.14,0.5494835,0,50.66,58.5,33.46,35.33
"2016-06-18 03:50:00",240420,0.126,48.99,11.3,89.6,0,0,866.4082,0,8.37,3.032,299,17.15,17.15,0.8223408,0,50.61,58.5,33.45,35.33
"2016-06-18 04:00:00",240421,0.239,0.738,12.27,80.6,0,0,866.5219,0,7.353,3.042,307,17.04,17.15,1.807629,0,50.66,58.5,33.46,35.33
"2016-06-18 04:10:00",240422,0.264,137.3,11.42,86.6,0,0,866.4209,0,7.385,3.041,293,17.05,17.14,0.2614791,0,50.66,58.5,33.46,35.33
"2016-06-18 04:20:00",240423,0.189,65.88,11.13,87.7,0,0,866.5831,0,-2.222,3.141,223,17.03,17.14,0.02273736,0,50.66,58.44,33.46,35.32
"2016-06-18 04:30:00",240424,0.444,4.703,11.29,87.8,0,0,866.6484,0,-31.63,3.424,248,16.96,17.11,0.6707639,0,50.66,58.5,33.46,35.33
"2016-06-18 04:40:00",240425,0.59,28.35,11.63,83.6,0.4362656,0,866.6547,0,-28.54,3.395,198,16.97,17.11,1.144457,0.71,50.61,58.44,33.45,35.32
"2016-06-18 04:50:00",240426,0.506,24.47,11.8,78.5,4.417659,0,866.7726,0,-27.88,3.386,196,16.94,17.1,1.784883,0.422,50.61,58.44,33.45,35.32
"2016-06-18 05:00:00",240427,0.617,42.65,11.57,81.1,7.998142,0,866.9011,0,10.46,3.013,310,16.88,17.07,1.728034,0.22,50.66,58.44,33.46,35.32
"2016-06-18 05:10:00",240428,0.517,36.77,11.62,79.55,12.35289,0,866.9011,0,-30.97,3.417,248,16.86,17.06,2.16383,0.176,50.66,58.44,33.46,35.32
"2016-06-18 05:20:00",240429,0.413,28.42,11.66,78.93,16.53865,0,866.9158,0,7.96,3.037,287,16.81,17.06,2.41015,0.147,50.61,58.44,33.45,35.32
"2016-06-18 05:30:00",240430,0.507,37.14,11.6,79.63,21.22748,0,866.9874,0,-30.43,3.411,205,16.78,17.06,2.99753,0.14,50.61,58.44,33.45,35.32
"2016-06-18 05:40:00",240431,0.237,17.02,12.01,75.3,30.24356,0,867.1433,0,-31.65,3.424,200,16.8,17.06,5.002198,0.166,50.61,58.44,33.45,35.32
"2016-06-18 05:50:00",240432,0.017,112.6,10.69,88.6,97.80912,0,867.1539,0,8.71,3.035,285,16.75,17.06,17.40917,0.18,50.61,58.38,33.45,35.31
"2016-06-18 06:00:00",240433,0.039,32.69,11.31,83.7,131.6214,0,867.2213,0,14.7,2.968,442,16.69,17.06,23.40044,0.193,50.61,58.38,33.45,35.31
"2016-06-18 06:10:00",240434,0.048,14.8,12.29,74.26,140.4763,0,867.3897,0,-33.05,3.435,208,16.67,17.06,31.72228,0.274,50.61,58.38,33.45,35.31
"2016-06-18 06:20:00",240435,0,0,11.64,83,63.80821,0,867.4066,0,12.73,2.99,372,16.67,17.04,30.953,0.496,50.61,58.38,33.45,35.31
"2016-06-18 06:30:00",240436,0,0,11.72,85.3,128.2335,0,867.4213,0,-26.02,3.367,190,16.67,17.02,32.84019,0.335,50.61,58.38,33.45,35.31
"2016-06-18 06:40:00",240437,0.079,16.18,12.46,83,240.8519,0,867.5414,0,-30.53,3.407,191,16.56,17.04,34.51896,0.169,50.61,58.38,33.45,35.31
"2016-06-18 06:50:00",240438,0.31,38.03,12.75,79.59,66.99567,0,867.6446,0,-33.73,3.437,202,16.54,17.06,35.85288,0.544,50.55,58.32,33.43,35.29
"2016-06-18 07:00:00",240439,0.402,26.9,12.89,80.2,117.9283,0,867.6593,0,14.88,2.962,324,16.55,17.05,35.5914,0.339,50.61,58.32,33.45,35.29
"2016-06-18 07:10:00",240440,0.291,50.97,13.07,81.1,93.99281,0,867.7078,0,-25.88,3.356,200,16.57,17.04,36.33415,0.409,50.55,58.32,33.43,35.29
"2016-06-18 07:20:00",240441,0,0,13.8,80.2,114.9727,0,867.6719,0,15.32,2.951,295,16.57,16.98,38.13798,0.368,50.55,58.32,33.43,35.29
"2016-06-18 07:30:00",240442,0.349,16.15,14.23,76.15,151.2217,0,867.891,0,-23.99,3.333,195,16.53,16.95,41.76836,0.312,50.61,58.32,33.45,35.29
"2016-06-18 07:40:00",240443,0.123,353,14.71,74.08,418.7799,0,867.9066,0,16.38,2.938,262,16.53,16.89,46.52045,0.156,50.55,58.32,33.43,35.29
"2016-06-18 07:50:00",240444,0.689,13.97,14.57,73.67,615.5733,0,868.1064,0,15.81,2.944,294,16.52,16.88,61.7241,0.1,50.61,58.32,33.45,35.29
"2016-06-18 08:00:00",240445,0.791,15.3,14.75,73.7,651.6081,0,867.9258,0,15.48,2.947,281,16.5,16.88,81.42516,0.125,50.55,58.26,33.43,35.28
"2016-06-18 08:10:00",240446,0.688,13.3,14.94,74.16,687.6034,0,867.8441,0,16.97,2.93,272,16.47,16.89,97.92902,0.142,50.55,58.26,33.43,35.28
"2016-06-18 08:20:00",240447,0.664,12.5,15.45,73.41,719.0154,0,867.8276,0,13.35,2.963,330,16.44,16.85,109.7578,0.153,50.55,58.26,33.43,35.28
"2016-06-18 08:30:00",240448,0.617,6.538,15.69,74.24,751.1481,0,867.832,0,-22.91,3.314,198,16.41,16.79,117.8669,0.157,50.55,58.26,33.43,35.28
"2016-06-18 08:40:00",240449,0.769,8.47,15.92,72.84,751.084,0,867.8372,0,-19.57,3.282,190,16.4,16.75,118.1125,0.157,50.55,58.26,33.43,35.28
"2016-06-18 08:50:00",240450,0.606,356.8,16.18,72.06,804.2796,0,867.8202,0,-32.48,3.404,305,16.4,16.75,127.8277,0.159,50.5,58.26,33.42,35.28
"2016-06-18 09:00:00",240451,0.504,355.1,16.75,71.16,844.43,0,867.8602,0,-23.73,3.318,238,16.4,16.69,132.3428,0.157,50.55,58.26,33.43,35.28
"2016-06-18 09:10:00",240452,0.478,6.12,16.7,71.1,871.2559,0,868.0034,0,-27.21,3.349,262,16.38,16.75,135.5172,0.156,50.55,58.21,33.43,35.26
"2016-06-18 09:20:00",240453,0.374,1.214,17.25,70.08,907.6809,0,867.9991,0,-14.34,3.222,199,16.35,16.75,140.7752,0.155,50.55,58.21,33.43,35.26
"2016-06-18 09:30:00",240454,0.551,33.18,17.67,69.32,930.9403,0,868.1086,0,318,0,0,16.32,16.75,144.4612,0.155,50.55,58.21,33.43,35.26
"2016-06-18 09:40:00",240455,0.468,328.8,18,68.12,985.0773,0,868.1529,0,318,0,0,16.34,16.73,153.8864,0.156,50.55,58.21,33.43,35.26
"2016-06-18 09:50:00",240456,0.395,1.85,18.3,66.75,902.8602,0,868.0729,0,-11.82,3.193,184,16.32,16.7,137.434,0.152,50.5,58.26,33.42,35.28
"2016-06-18 10:00:00",240457,0.318,61.15,18.7,65.84,983.9182,0,868.0729,0,318,0,0,16.31,16.66,153.0151,0.155,50.5,58.15,33.42,35.25
"2016-06-18 10:10:00",240458,0.286,22.06,19.22,65.64,1018.092,0,868.0729,0,318,0,0,16.31,16.63,157.3753,0.155,50.5,58.15,33.42,35.25
"2016-06-18 10:20:00",240459,0.577,41.28,19.62,64.8,996.0194,0,868.0729,0,-24.13,3.306,180,16.3,16.61,153.2007,0.154,50.5,58.21,33.42,35.26
"2016-06-18 10:30:00",240460,0.382,343.8,19.53,65.11,967.4717,0,868.0729,0,17.17,2.905,319,16.27,16.57,148.8101,0.154,50.5,58.15,33.42,35.25
"2016-06-18 10:40:00",240461,0.45,345.8,19.76,65.13,902.5536,0,868.0729,0,16.26,2.916,251,16.33,16.57,134.7822,0.148,50.44,58.15,33.41,35.25
"2016-06-18 10:50:00",240462,0.318,295.4,19.5,63.72,861.3351,0,868.1718,0,16.45,2.912,294,16.37,16.57,132.9108,0.154,50.44,58.09,33.41,35.24
"2016-06-18 11:00:00",240463,0.391,318.9,19.76,61.77,851.8506,0,868.1107,0,318,0,0,16.46,16.57,131.5319,0.153,50.44,58.09,33.41,35.24
"2016-06-18 11:10:00",240464,0.431,287.1,19.38,60.19,878.2217,0,868.2455,0,17.14,2.906,311,16.52,16.53,138.1045,0.156,50.44,58.09,33.41,35.24
"2016-06-18 11:20:00",240465,0.444,306.8,20.07,58.12,1026.304,0,868.3066,0,25.9,2.819,302,16.61,16.5,160.5158,0.156,50.39,58.09,33.39,35.24
"2016-06-18 11:30:00",240466,0.628,356,19.84,55.93,740.52,0,868.1403,0,-28.78,3.35,196,16.64,16.47,112.1057,0.151,50.33,58.09,33.38,35.24
"2016-06-18 11:40:00",240467,0.508,334.9,19.73,56.84,945.281,0,868.2328,0,-26.55,3.326,272,16.74,16.49,151.0641,0.159,50.39,58.09,33.39,35.24
"2016-06-18 11:50:00",240468,0.391,269,20.3,56.29,1072.088,0,868.3255,0,-26.19,3.32,224,16.85,16.49,168.8765,0.157,50.28,58.03,33.37,35.22
"2016-06-18 12:00:00",240469,0.429,250.6,20.53,54.89,1076.076,0,868.3087,0,-13.81,3.199,185,16.93,16.49,169.422,0.157,50.28,58.03,33.37,35.22
"2016-06-18 12:10:00",240470,0.421,290.6,20.87,54.07,1071.561,0,868.315,0,-16.87,3.228,184,17.01,16.48,167.4938,0.156,50.28,58.03,33.37,35.22
"2016-06-18 12:20:00",240471,0.55,33.15,20.78,54.03,1094.145,0,868.2222,0,-21.46,3.272,188,17.12,16.48,172.0435,0.157,50.28,58.03,33.37,35.22
"2016-06-18 12:30:00",240472,0.364,251.6,21.19,55.02,1082.857,0,868.0656,0,-13.94,3.196,185,17.23,16.49,169.8387,0.157,50.22,57.97,33.35,35.21
"2016-06-18 12:40:00",240473,0.407,317.8,21.92,52.72,1075.325,0,868.0687,0,7.927,2.983,270,17.3,16.45,168.0772,0.156,50.17,57.97,33.34,35.21
"2016-06-18 12:50:00",240474,0.589,2.435,21.79,51.9,1060.804,0,868.0402,0,-13.98,3.193,177,17.41,16.46,167.3688,0.158,50.17,57.91,33.34,35.2
"2016-06-18 13:00:00",240475,0.429,277.6,21.82,52.03,1048.589,0,867.9609,0,318,0,0,17.52,16.45,165.4443,0.158,50.17,57.91,33.34,35.2
"2016-06-18 13:10:00",240476,0.341,0.246,21.84,54.63,1030.425,0,867.8516,0,-14.23,3.194,186,17.61,16.44,161.7091,0.157,50.11,57.91,33.33,35.2
"2016-06-18 13:20:00",240477,0.412,331.6,22.14,53.76,1016.1,0,867.919,0,318,0,0,17.75,16.43,158.527,0.156,50.11,57.91,33.33,35.2
"2016-06-18 13:30:00",240478,0.553,325.9,22.2,52.49,1006.455,0,867.8769,0,26.8,2.8,291,17.85,16.42,158.6899,0.158,50.11,57.86,33.33,35.18
"2016-06-18 13:40:00",240479,0.478,299.8,22.22,51.68,987.8472,0,867.8201,0,21.29,2.854,292,17.94,16.41,158.1974,0.16,50.06,57.86,33.31,35.18
"2016-06-18 13:50:00",240480,0.448,324.7,22.17,50.96,969.6719,0,867.7042,0,-15.91,3.213,176,18.06,16.4,155.6896,0.161,50.06,57.86,33.31,35.18
"2016-06-18 14:00:00",240481,0.512,153.4,22.3,49.92,953.4964,0,867.5695,0,19.33,2.871,323,18.17,16.4,152.7575,0.16,50.06,57.86,33.31,35.18
"2016-06-18 14:10:00",240482,0.4,18.62,22.66,51.27,931.8597,0,867.5758,0,26.81,2.797,348,18.26,16.4,148.8291,0.16,50.01,57.8,33.3,35.17
"2016-06-18 14:20:00",240483,0.479,330.6,22.75,48.61,902.6204,0,867.5737,0,24.56,2.819,343,18.39,16.39,143.4005,0.159,49.95,57.86,33.28,35.18
"2016-06-18 14:30:00",240484,0.286,208.3,23.01,49.17,874.6189,0,867.5652,0,-17.59,3.223,222,18.48,16.43,135.3846,0.155,49.95,57.8,33.28,35.17
"2016-06-18 14:40:00",240485,0.399,317.9,22.81,48.12,846.0043,0,867.5463,0,-22.07,3.266,202,18.58,16.45,126.7663,0.15,49.95,57.8,33.28,35.17
"2016-06-18 14:50:00",240486,0.606,273.9,22.91,46.46,821.366,0,867.561,0,25.94,2.807,303,18.65,16.44,115.4318,0.14,49.95,57.8,33.28,35.17
"2016-06-18 15:00:00",240487,0.372,303.5,22.6,43.96,782.4576,0,867.5674,0,-16.33,3.214,201,18.72,16.45,96.73302,0.124,49.9,57.74,33.27,35.16
"2016-06-18 15:10:00",240488,0.444,328.7,22.55,46.29,746.2366,0,867.4557,0,-23.84,3.285,200,18.82,16.47,75.1968,0.101,49.9,57.74,33.27,35.16
"2016-06-18 15:20:00",240489,0.29,209.2,22.71,46.63,715.8265,0,867.3315,0,18.32,2.879,222,18.92,16.46,57.57764,0.08,49.84,57.74,33.26,35.16
"2016-06-18 15:30:00",240490,0.329,292.3,22.71,44.26,618.9112,0,867.3652,0,-21.27,3.262,206,18.97,16.47,37.6325,0.064,49.84,57.68,33.26,35.14
"2016-06-18 15:40:00",240491,0.381,235.5,22.36,47.02,375.8273,0,867.5063,0,18.15,2.881,294,19.07,16.51,29.49533,0.085,49.79,57.68,33.24,35.14
"2016-06-18 15:50:00",240492,0.214,250.3,22.23,47.89,129.447,0,867.5463,0,-20.48,3.256,212,19.14,16.53,23.80916,0.199,49.79,57.68,33.24,35.14
"2016-06-18 16:00:00",240493,0.255,233,21.82,49.31,97.46538,0,867.5632,0,-15.56,3.212,197,19.22,16.58,18.72154,0.194,49.79,57.62,33.24,35.13
"2016-06-18 16:10:00",240494,0.26,182,21.56,48.36,108.82,0,867.5674,0,25.38,2.817,361,19.26,16.54,15.08861,0.155,49.79,57.62,33.24,35.13
"2016-06-18 16:20:00",240495,0.283,223.7,21.51,49.01,131.5293,0,867.5695,0,-15.55,3.211,210,19.32,16.54,22.20294,0.169,49.73,57.62,33.23,35.13
"2016-06-18 16:30:00",240496,0.223,209,21.54,47.93,110.5173,0,867.6242,0,20.17,2.868,248,19.33,16.59,16.78196,0.151,49.73,57.62,33.23,35.13
"2016-06-18 16:40:00",240497,0.345,197.6,21.21,50.25,101.3432,0,867.5674,0,24.31,2.83,390,19.45,16.64,15.85005,0.151,49.73,57.56,33.23,35.12
"2016-06-18 16:50:00",240498,0.161,198.4,20.91,50.46,100.5732,0,867.681,0,20.08,2.872,331,19.45,16.66,14.50901,0.142,49.73,57.56,33.23,35.12
"2016-06-18 17:00:00",240499,0.241,58,21.11,46.13,115.8803,0,867.6368,0,-15.88,3.217,170,19.5,16.66,18.22149,0.157,49.68,57.56,33.22,35.12
"2016-06-18 17:10:00",240500,0.089,209.5,21.05,44.4,92.46383,0,867.7885,0,18.07,2.891,304,19.53,16.69,13.39526,0.139,49.68,57.51,33.22,35.1
"2016-06-18 17:20:00",240501,0.134,6.97,21.06,44.35,129.1013,0,867.8201,0,-15.84,3.215,186,19.53,16.75,20.0891,0.155,49.62,57.51,33.2,35.1
"2016-06-18 17:30:00",240502,0.111,217.5,21.06,46.62,61.38586,0,867.8179,0,16.93,2.903,353,19.53,16.82,6.674901,0.099,49.68,57.56,33.22,35.12
"2016-06-18 17:40:00",240503,0,0,20.28,53.16,48.61285,0,867.8832,0,-26.81,3.329,184,19.55,16.84,4.799715,0.093,49.62,57.51,33.2,35.1
"2016-06-18 17:50:00",240504,0,0,19.75,52.41,50.24776,0,868.0391,0,-25.01,3.313,198,19.6,16.84,5.360426,0.107,49.62,57.51,33.2,35.1
"2016-06-18 18:00:00",240505,0.078,201,19.43,55.43,51.61277,0,868.0727,0,16.03,2.919,293,19.63,16.85,6.212991,0.12,49.62,57.51,33.2,35.1
"2016-06-18 18:10:00",240506,0.222,198.1,18.9,58.84,41.05119,0,868.0727,0,15.35,2.928,323,19.63,16.92,4.644573,0.113,49.62,57.51,33.2,35.1
"2016-06-18 18:20:00",240507,0.008,197.9,18.68,59.69,31.51197,0,868.2032,0,15.43,2.928,326,19.63,16.96,3.644512,0.115,49.62,57.51,33.2,35.1
"2016-06-18 18:30:00",240508,0.055,196.1,18.32,61.32,21.51676,0,868.4117,0,-26.32,3.335,202,19.64,16.99,2.129175,0.09,49.62,57.51,33.2,35.1
"2016-06-18 18:40:00",240509,0.243,187.2,17.61,65.85,12.85694,0,868.5359,0,-25.24,3.329,192,19.61,16.99,0.9282258,0.071,49.62,57.51,33.2,35.1
"2016-06-18 18:50:00",240510,0.095,193.5,17.26,67.75,9.579915,0,868.6938,0,-24.99,3.327,193,19.56,16.97,1.022951,0.108,49.57,57.45,33.19,35.09
"2016-06-18 19:00:00",240511,0.05,166.7,16.88,70.59,2.404863,0,868.8264,0,-25.72,3.337,197,19.58,17.05,0.1098744,0.02,49.57,57.45,33.19,35.09
"2016-06-18 19:10:00",240512,0.262,170.5,16.36,73.64,0,0,868.8358,0,-24.69,3.33,184,19.62,17.08,0,0,49.57,57.45,33.19,35.09
"2016-06-18 19:20:00",240513,0.097,170.4,16.02,75.22,0,0,868.8357,0,-24.29,3.327,196,19.59,17.13,0,0,49.57,57.45,33.19,35.09
"2016-06-18 19:30:00",240514,0.103,173.6,16.15,72.46,0,0,868.9333,0,-25.58,3.337,196,19.57,17.16,0.1136819,0,49.51,57.39,33.18,35.07
"2016-06-18 19:40:00",240515,0.151,177.4,16.22,71.5,0,0,869.111,0,-25.12,3.336,184,19.61,17.19,0.219787,0,49.57,57.39,33.19,35.07
"2016-06-18 19:50:00",240516,0.169,175.1,15.89,73.04,0,0,869.1259,0,-24.68,3.33,195,19.54,17.18,0.113682,0,49.57,57.39,33.19,35.07
"2016-06-18 20:00:00",240517,0.151,177.6,16.19,69.55,0,0,869.1414,0,-25.94,3.341,201,19.51,17.18,0.5343096,0,49.57,57.39,33.19,35.07
"2016-06-18 20:10:00",240518,0.111,190.7,16.29,68.6,0,0,869.2651,0,16.05,2.933,296,19.51,17.22,0.5418972,0,49.51,57.39,33.18,35.07
"2016-06-18 20:20:00",240519,0.068,159.1,16.13,69.83,0,0,869.4091,0,15.81,2.938,344,19.43,17.28,0.3562148,0,49.51,57.39,33.18,35.07
"2016-06-18 20:30:00",240520,0.249,169.4,15.91,70.69,0,0,869.4997,0,17.12,2.924,343,19.44,17.32,0.3675851,0,49.51,57.33,33.18,35.06
"2016-06-18 20:40:00",240521,0.351,120.7,16.43,67.32,0,0,869.5602,0,17.36,2.919,336,19.39,17.32,1.064861,0,49.51,57.33,33.18,35.06
"2016-06-18 20:50:00",240522,0.057,125.3,16.58,65.58,0,0,869.6732,0,16.83,2.925,334,19.35,17.35,0.6555906,0,49.51,57.33,33.18,35.06
"2016-06-18 21:00:00",240523,0.092,142.4,16.37,65.99,0,0,869.6739,0,16.98,2.924,310,19.29,17.36,0.2880051,0,49.51,57.33,33.18,35.06
"2016-06-18 21:10:00",240524,0.268,108.2,16.52,63.97,0,0,869.8264,0,17.51,2.918,316,19.26,17.4,0.6669592,0,49.51,57.33,33.18,35.06
"2016-06-18 21:20:00",240525,0.031,120.9,15.89,68.58,0,0,869.9366,0,16.89,2.928,341,19.27,17.42,0.03789541,0,49.51,57.27,33.18,35.05
"2016-06-18 21:30:00",240526,0.139,164.8,15.46,70.05,0,0,870.0374,0,15.41,2.945,344,19.23,17.41,0,0,49.57,57.27,33.19,35.05
"2016-06-18 21:40:00",240527,0.045,129.4,15.53,68.47,0,0,870.1736,0,-23.81,3.322,187,19.16,17.4,0.2955842,0,49.51,57.27,33.18,35.05
"2016-06-18 21:50:00",240528,0.086,130.7,16.18,64.48,0,0,870.1028,0,16.66,2.928,302,19.14,17.4,0.8715944,0,49.51,57.27,33.18,35.05
"2016-06-18 22:00:00",240529,0.012,150.2,16.09,64.95,0,0,869.9526,0,16.8,2.926,372,19.08,17.43,0.5153776,0,49.51,57.22,33.18,35.03
"2016-06-18 22:10:00",240530,0.082,96.6,16.2,64.94,0,0,869.9509,0,15.53,2.939,316,19.04,17.48,0.5760102,0,49.51,57.22,33.18,35.03
"2016-06-18 22:20:00",240531,0.121,118.7,15.76,68.82,0,0,869.934,0,16.99,2.927,278,19.02,17.53,0.2425306,0,49.51,57.22,33.18,35.03
"2016-06-18 22:30:00",240532,0.112,88.4,15.75,69.97,0,0,869.7529,0,16.82,2.93,294,18.96,17.52,0.3107423,0,49.51,57.22,33.18,35.03
"2016-06-18 22:40:00",240533,0.24,205.2,15.26,73.12,0,0,869.6813,0,-24.48,3.333,187,18.96,17.51,0.04547449,0,49.51,57.22,33.18,35.03
"2016-06-18 22:50:00",240534,0.058,194.9,15.3,72.66,0,0,869.5528,0,17.09,2.928,315,18.94,17.5,0.1515816,0,49.51,57.27,33.18,35.05
"2016-06-18 23:00:00",240535,0.033,305.3,15.85,70.29,0,0,869.5402,0,16.21,2.935,318,18.9,17.49,0.8299094,0,49.46,57.22,33.16,35.03
"2016-06-18 23:10:00",240536,0.2,192.2,14.67,76.98,0,0,869.6476,0,16.65,2.938,333,18.83,17.5,0,0,49.46,57.16,33.16,35.02
"2016-06-18 23:20:00",240537,0.442,188.7,14.07,80.6,0,0,869.6813,0,16.56,2.94,324,18.8,17.51,0,0,49.51,57.22,33.18,35.03
"2016-06-18 23:30:00",240538,0.464,201.3,13.88,81.7,0,0,869.6791,0,17.28,2.933,333,18.76,17.52,0.03789541,0,49.46,57.16,33.16,35.02
"2016-06-18 23:40:00",240539,0.269,189.5,13.71,82.8,0,0,869.6581,0,16.79,2.94,323,18.73,17.51,0.01136862,0,49.51,57.16,33.18,35.02
"2016-06-18 23:50:00",240540,0.16,178.8,13.62,83.5,0,0,869.6666,0,16.93,2.938,327,18.68,17.53,0.02273725,0,49.51,57.22,33.18,35.03
